Location: ???????
(55.4362°N, 38.1183°E)
Time: 03:36:40
(UTC+00:00)

SJ 16-02 - Pass Details

Date: 17 June 2021
Orbit: 606 x 616 km, 75.0° (Epoch: 26 July)

Event Time Altitude Azimuth Distance (km) Brightness Sun altitude
Rises 20:46:20 0° 336° (NNW) 2,881 6.5 -10.6°
Reaches altitude 10° 20:48:39 10° 342° (NNW) 1,972 5.5 -10.7°
Maximum altitude 20:52:55 48° 57° (ENE) 799 2.1 -10.8°
Drops below altitude 10° 20:57:09 10° 133° (SE) 1,957 3.5 -10.9°
Enters shadow 20:57:26 - 134° (SE) 2,064 3.6 -10.9°
